Hourly Data Report for June 30, 2021

WESTERN HEAD
NOVA SCOTIA
Current Station Operator: ECCC - MSC

43°59'24.070" N
64°39'51.008" W
10.10 m
8206240
71411
WWE

Download Data

Hourly Data (June 2021)
Hourly Data Report for June 30, 2021
TIME
LST
Temp Definition
°C
Dew Point Definition
°C
Rel Hum Definition
%
Precip. Amount Definition
mm

Wind Dir Definition
10's deg

Wind Spd Definition
km/h
Visibility Definition
km
Stn Press Definition
kPa
Hmdx Definition


Wind Chill Definition


Weather Definition


00:00 20.1 LegendMM LegendMM 0.0 34 9   101.44     LegendNANA
01:00 13.0 LegendMM LegendMM 0.0 3 5   101.41     LegendNANA
02:00 14.0 LegendMM LegendMM 0.0 22 2   101.36     LegendNANA
03:00 14.7 LegendMM LegendMM 0.0   0   101.34     LegendNANA
04:00 16.6 LegendMM LegendMM 0.0 24 10   101.31     LegendNANA
05:00 15.2 LegendMM LegendMM 0.0 24 8   101.30     LegendNANA
06:00 13.2 LegendMM LegendMM 0.0 22 12   101.28     LegendNANA
07:00 14.0 LegendMM LegendMM 0.0 23 9   101.23     LegendNANA
08:00 13.8 13.8 100 0.0 22 14   101.22     LegendNANA
09:00 13.4 13.1 98 0.0 21 13   101.17     LegendNANA
10:00 13.9 13.9 100 0.0 22 13   101.13     LegendNANA
11:00 14.5 14.5 100 0.0 21 17   101.06     LegendNANA
12:00 14.4 13.5 94 0.0 21 18   100.99     LegendNANA
13:00 15.5 13.2 86 0.0 25 13   100.95     LegendNANA
14:00 14.8 12.5 86 0.0 20 21   100.86     LegendNANA
15:00 19.8 15.2 75 0.0 21 19   100.79     LegendNANA
16:00 15.5 11.9 79 0.0 21 12   100.79     LegendNANA
17:00 15.0 12.2 83 0.0 22 13   100.75     LegendNANA
18:00 12.8 11.9 94 0.0 23 17   100.76     LegendNANA
19:00 13.0 13.0 100 0.0 23 15   100.76     LegendNANA
20:00 12.4 12.4 100 0.0 22 17   100.78     LegendNANA
21:00 12.7 12.7 100 0.0 23 14   100.82     LegendNANA
22:00 13.7 LegendMM LegendMM 0.0 22 9   100.79     LegendNANA
23:00 12.5 LegendMM LegendMM 0.0 21 9   100.77     LegendNANA

Notes on Data Quality.

Legend

  • E = Estimated
  • M = Missing
  • NA = Not Available*
  • [empty] = Indicates an unobserved value
Date modified: